VK1ET-13 Weather Reports


time (UTC)temp
C
wind
direction
speed
KPH
gust
KPH
rain 1hr
cm
rain 24hr
cm
rain mn
cm
humidity
%
barometer
mb
20260510043518 21 354 8.0 14.5 0.00 0.00 0.00 48 1027.0
20260510042527 21 7 8.0 11.3 0.00 0.00 0.00 48 1026.9
20260510041517 21 360 8.0 12.9 0.00 0.00 0.00 48 1026.9
20260510040526 21 14 9.7 14.5 0.00 0.00 0.00 48 1027.0
20260510035536 21 359 6.4 17.7 0.00 0.00 0.00 48 1027.1
20260510034525 20 360 6.4 9.7 0.00 0.00 0.00 47 1027.0
20260510033534 21 7 8.0 14.5 0.00 0.00 0.00 47 1027.1
20260510032524 20 1 4.8 8.0 0.00 0.00 0.00 49 1027.2
20260510031534 21 19 6.4 11.3 0.00 0.00 0.00 47 1027.2
20260510030522 20 345 9.7 16.1 0.00 0.00 0.00 49 1027.3
20260510025533 20 357 4.8 9.7 0.00 0.00 0.00 49 1027.4
20260510024521 20 333 9.7 14.5 0.00 0.00 0.00 48 1027.6
20260510023530 20 350 9.7 14.5 0.00 0.00 0.00 49 1027.7
20260510022519 18 316 6.4 12.9 0.00 0.00 0.00 51 1028.0
20260510021528 18 12 6.4 12.9 0.00 0.00 0.00 53 1028.1
20260510020517 18 351 4.8 11.3 0.00 0.00 0.00 52 1028.2
20260510015527 18 13 8.0 12.9 0.00 0.00 0.00 54 1028.2
20260510014537 18 359 11.3 16.1 0.00 0.00 0.00 56 1028.5
20260510013533 18 345 11.3 14.5 0.00 0.00 0.00 58 1028.7
20260510012541 17 349 9.7 14.5 0.00 0.00 0.00 62 1028.7
20260510011523 17 318 8.0 17.7 0.00 0.00 0.00 65 1028.7
20260510010532 16 296 3.2 6.4 0.00 0.00 0.00 65 1028.8
20260510005521 15 349 4.8 9.7 0.00 0.00 0.00 67 1028.8
20260510004531 15 326 6.4 9.7 0.00 0.00 0.00 67 1028.8
20260510003520 15 285 3.2 8.0 0.00 0.00 0.00 69 1028.8
20260510002529 14 305 3.2 6.4 0.00 0.00 0.00 71 1028.8
20260510001518 13 279 3.2 4.8 0.00 0.00 0.00 71 1028.7
20260510000527 13 210 3.2 6.4 0.00 0.00 0.00 70 1028.8
20260509235536 13 218 3.2 4.8 0.00 0.00 0.00 72 1028.7
20260509234525 12 173 3.2 6.4 0.00 0.00 0.00 75 1028.7
20260509233536 12 129 3.2 6.4 0.00 0.00 0.00 79 1028.7
20260509232524 11 170 4.8 6.4 0.00 0.00 0.00 81 1028.8
20260509231533 11 174 4.8 9.7 0.00 0.00 0.00 84 1028.8
20260509230529 11 185 3.2 8.0 0.00 0.00 0.00 86 1028.8
20260509225532 10 161 3.2 6.4 0.00 0.00 0.00 92 1028.9
20260509224522 9 95 3.2 4.8 0.00 0.00 0.00 98 1028.7
20260509223530 8 30 1.6 3.2 0.00 0.00 0.00 98 1028.7
20260509222526 8 168 1.6 3.2 0.00 0.00 0.00 98 1028.5
20260509221529 7 301 1.6 3.2 0.00 0.00 0.00 98 1028.5
20260509220531 7 156 1.6 4.8 0.00 0.00 0.00 98 1028.4
20260509215527 6 191 1.6 4.8 0.00 0.00 0.00 99 1028.4
20260509214535 6 177 0.0 3.2 0.00 0.00 0.00 99 1028.3
20260509213525 6 66 1.6 3.2 0.00 0.00 0.00 99 1028.1
20260509212541 6 181 1.6 3.2 0.00 0.00 0.00 99 1028.0
20260509211524 6 206 0.0 6.4 0.00 0.00 0.00 99 1027.9
20260509210546 7 209 3.2 6.4 0.00 0.00 0.00 98 1027.6
20260509205521 7 199 1.6 3.2 0.00 0.00 0.00 97 1027.5
20260509204529 7 19 0.0 3.2 0.00 0.00 0.00 97 1027.3
20260509203517 6 65 0.0 3.2 0.00 0.00 0.00 98 1027.3
20260509202527 7 204 0.0 1.6 0.00 0.00 0.00 97 1027.1
20260509201544 6 145 1.6 3.2 0.00 0.00 0.00 98 1027.1
20260509200525 6 175 1.6 3.2 0.00 0.00 0.00 98 1026.9
20260509195534 7 359 4.8 6.4 0.00 0.00 0.00 97 1026.8
20260509194523 6 47 4.8 8.0 0.00 0.00 0.00 97 1026.7
20260509193533 6 24 3.2 8.0 0.00 0.00 0.00 97 1026.6
20260509192529 6 151 0.0 3.2 0.00 0.00 0.00 97 1026.5
20260509191532 6 307 1.6 4.8 0.00 0.00 0.00 98 1026.4
20260509190521 6 227 0.0 3.2 0.00 0.00 0.00 98 1026.1
20260509185536 6 164 1.6 4.8 0.00 0.00 0.00 97 1026.0
20260509184520 6 16 3.2 4.8 0.00 0.00 0.00 97 1026.1
20260509183529 6 19 0.0 3.2 0.00 0.00 0.00 98 1025.9
20260509182517 6 24 0.0 3.2 0.00 0.00 0.00 98 1025.9
20260509181534 6 193 1.6 3.2 0.00 0.00 0.00 97 1025.8
20260509180536 6 206 1.6 3.2 0.00 0.00 0.00 98 1025.8
20260509175525 6 176 1.6 4.8 0.00 0.00 0.00 98 1025.7
20260509174534 7 200 4.8 6.4 0.00 0.00 0.00 98 1025.6
20260509173530 7 191 4.8 8.0 0.00 0.00 0.00 98 1025.6
20260509172532 7 196 1.6 4.8 0.00 0.00 0.00 97 1025.7
20260509171521 7 6 0.0 3.2 0.00 0.00 0.00 97 1025.7
20260509170539 7 9 1.6 6.4 0.00 0.00 0.00 97 1025.7
20260509165521 7 11 3.2 8.0 0.00 0.00 0.00 97 1025.7
20260509164530 7 22 3.2 6.4 0.00 0.00 0.00 97 1025.7
20260509163519 7 8 3.2 6.4 0.00 0.00 0.00 97 1025.7
20260509162528 7 351 3.2 6.4 0.00 0.00 0.00 97 1025.5
20260509161517 7 195 1.6 3.2 0.00 0.00 0.00 97 1025.5
20260509160527 7 202 1.6 3.2 0.00 0.00 0.00 97 1025.6
20260509155538 7 169 3.2 4.8 0.00 0.00 0.00 97 1025.7
20260509154540 8 142 1.6 4.8 0.00 0.00 0.00 97 1025.7
20260509153534 8 163 3.2 6.4 0.00 0.00 0.00 97 1025.8
20260509152524 8 146 1.6 4.8 0.00 0.00 0.00 96 1025.9
20260509151533 8 94 1.6 3.2 0.00 0.00 0.00 96 1025.7
20260509150536 8 57 1.6 4.8 0.00 0.00 0.00 96 1026.0
20260509145532 8 135 0.0 3.2 0.00 0.00 0.00 96 1025.7
20260509144527 8 36 1.6 4.8 0.00 0.00 0.00 96 1025.9
20260509143528 8 171 1.6 4.8 0.00 0.00 0.00 96 1025.7
20260509142518 8 177 1.6 4.8 0.00 0.00 0.00 95 1025.9
20260509141529 8 171 4.8 6.4 0.00 0.00 0.00 96 1025.9
20260509140517 8 175 4.8 8.0 0.00 0.00 0.00 96 1025.7
20260509135526 8 146 3.2 6.4 0.00 0.00 0.00 95 1025.8
20260509134536 9 162 3.2 6.4 0.00 0.00 0.00 95 1025.8
20260509133525 9 166 3.2 6.4 0.00 0.00 0.00 95 1025.8
20260509132535 9 169 3.2 6.4 0.00 0.00 0.00 94 1025.8
20260509131523 10 75 3.2 6.4 0.00 0.00 0.00 94 1025.9
20260509130533 10 186 3.2 6.4 0.00 0.00 0.00 93 1026.1
20260509125522 10 164 3.2 6.4 0.00 0.00 0.00 93 1026.1
20260509124532 10 162 4.8 8.0 0.00 0.00 0.00 92 1026.0
20260509123521 11 116 1.6 6.4 0.00 0.00 0.00 91 1026.0
20260509122537 11 0.0 0.0 0.00 0.00 0.00 91 1026.0
20260509121518 11 6 3.2 4.8 0.00 0.00 0.00 90 1026.0
20260509120527 11 0.0 1.6 0.00 0.00 0.00 89 1025.9
20260509115524 11 353 3.2 4.8 0.00 0.00 0.00 88 1026.0
20260509114526 11 79 0.0 1.6 0.00 0.00 0.00 88 1025.9
20260509113535 11 151 0.0 1.6 0.00 0.00 0.00 88 1026.0
20260509112531 11 0.0 0.0 0.00 0.00 0.00 88 1026.1
20260509111535 12 205 4.8 8.0 0.00 0.00 0.00 83 1025.9
20260509110523 12 0.0 1.6 0.00 0.00 0.00 82 1025.7
20260509105533 12 0.0 0.0 0.00 0.00 0.00 83 1025.7
20260509104522 12 0.0 1.6 0.00 0.00 0.00 83 1025.7
20260509103538 12 0.0 0.0 0.00 0.00 0.00 83 1025.5
20260509102519 12 0.0 0.0 0.00 0.00 0.00 82 1025.5
20260509101528 12 0.0 1.6 0.00 0.00 0.00 81 1025.4
20260509100518 12 30 0.0 1.6 0.00 0.00 0.00 84 1025.3
20260509095527 12 0.0 0.0 0.00 0.00 0.00 84 1025.3
20260509094537 12 0.0 0.0 0.00 0.00 0.00 82 1025.2
20260509093525 13 215 0.0 1.6 0.00 0.00 0.00 81 1025.1
20260509092536 13 0.0 0.0 0.00 0.00 0.00 81 1025.0
20260509091524 13 145 0.0 1.6 0.00 0.00 0.00 79 1025.1
20260509090533 13 0.0 1.6 0.00 0.00 0.00 78 1025.0
20260509085522 13 9 0.0 1.6 0.00 0.00 0.00 77 1024.9
20260509084539 13 0.0 1.6 0.00 0.00 0.00 76 1024.8
20260509083521 14 7 0.0 3.2 0.00 0.00 0.00 75 1024.7
20260509082532 14 0.0 1.6 0.00 0.00 0.00 74 1024.4
20260509081520 15 98 0.0 3.2 0.00 0.00 0.00 73 1024.3
20260509080529 15 26 0.0 4.8 0.00 0.00 0.00 72 1024.1
20260509075518 15 317 0.0 3.2 0.00 0.00 0.00 71 1023.9
20260509074527 15 353 1.6 3.2 0.00 0.00 0.00 69 1024.0
20260509073544 15 356 0.0 3.2 0.00 0.00 0.00 68 1023.9
20260509072525 16 0.0 1.6 0.00 0.00 0.00 67 1023.8
20260509071536 16 342 0.0 3.2 0.00 0.00 0.00 65 1023.6
20260509070524 17 334 1.6 6.4 0.00 0.00 0.00 64 1023.4
20260509065554 17 325 3.2 8.0 0.00 0.00 0.00 62 1023.3
20260509064522 17 325 3.2 6.4 0.00 0.00 0.00 61 1023.2
20260509063532 17 335 3.2 4.8 0.00 0.00 0.00 60 1023.3
20260509062520 17 331 4.8 8.0 0.00 0.00 0.00 60 1023.2
20260509061536 17 311 4.8 9.7 0.00 0.00 0.00 59 1023.1
20260509060519 18 320 6.4 9.7 0.00 0.00 0.00 59 1023.1
20260509055528 18 317 4.8 9.7 0.00 0.00 0.00 58 1023.0
20260509054536 17 298 8.0 12.9 0.00 0.00 0.00 58 1023.0
20260509053525 17 330 4.8 9.7 0.00 0.00 0.00 58 1023.0
20260509052542 18 257 4.8 9.7 0.00 0.00 0.00 56 1023.0
20260509051523 18 297 6.4 9.7 0.00 0.00 0.00 56 1023.0
20260509050540 17 161 1.6 4.8 0.00 0.00 0.00 56 1022.8
20260509045522 17 61 3.2 8.0 0.00 0.00 0.00 56 1022.8
20260509044532 17 305 4.8 6.4 0.00 0.00 0.00 56 1022.9